Location: Lawrence Hall of Science
(37.8785°N, 122.2415°W)
Time: 02:52:42
(UTC-07:00)

ARGOS - Visible Passes

Search period start: 23 July 2014 00:00
Search period end: 02 August 2014 00:00
Orbit: 820 x 836 km, 98.8° (Epoch: 22 July)

Date Brightness Start Highest point End Pass type
(mag) Time Alt. Az. Time Alt. Az. Time Alt. Az.
23 Jul 5.2 21:02:59 10° ENE 21:04:37 11° ENE 21:06:15 10° NE visible
23 Jul 3.1 22:42:20 45° SSE 22:44:02 89° WSW 22:49:25 10° NNW visible
24 Jul 3.2 22:23:44 38° SE 22:25:40 62° ENE 22:30:57 10° N visible
25 Jul 5.3 00:05:16 14° WSW 00:06:17 15° W 00:09:14 10° WNW visible
25 Jul 3.7 22:05:09 28° ESE 22:07:20 42° ENE 22:12:21 10° N visible
25 Jul 4.8 23:46:40 21° WSW 23:47:42 22° W 23:51:50 10° NW visible
26 Jul 4.2 21:46:33 20° ESE 21:49:04 29° ENE 21:53:36 10° N visible
26 Jul 4.3 23:28:05 31° WSW 23:29:09 33° W 23:33:59 10° NNW visible
27 Jul 4.7 21:27:58 13° ESE 21:30:51 20° ENE 21:34:38 10° NNE visible
27 Jul 3.7 23:09:30 42° SW 23:10:40 50° W 23:15:53 10° NNW visible
28 Jul 5.1 21:10:07 10° E 21:12:41 14° ENE 21:15:15 10° NNE visible
28 Jul 3.2 22:50:55 52° S 22:52:13 75° WSW 22:57:36 10° NNW visible
29 Jul 3.1 22:32:20 48° SE 22:33:50 74° ENE 22:39:11 10° N visible
30 Jul 5.5 00:13:52 12° W 00:14:35 12° W 00:16:37 10° WNW visible
30 Jul 3.5 22:13:45 36° ESE 22:15:29 50° ENE 22:20:39 10° N visible
30 Jul 5.1 23:55:17 18° WSW 23:55:58 19° W 23:59:40 10° NW visible
31 Jul 4.0 21:55:10 26° ESE 21:57:11 34° ENE 22:01:58 10° N visible
31 Jul 4.5 23:36:42 27° WSW 23:37:24 28° W 23:41:58 10° NW visible
01 Aug 4.5 21:36:36 18° E 21:38:57 24° ENE 21:43:07 10° NNE visible
01 Aug 3.9 23:18:08 39° WSW 23:18:53 42° W 23:23:58 10° NNW visible
